This is the latest recevied weather packets stored in our database for station/object G4WLC-1. If no packets are shown the sender has not sent any weather packets the latest 10 day(s).
| Time | Temp. | Humidity | Pressure | Rain* | Wind** | Luminosity | Snow |
|---|---|---|---|---|---|---|---|
| 1777660094 | 12.78° C | 87% | 1019 hPa | 0 mm | - | - | - |
| 1777659794 | 12.78° C | 87% | 1019 hPa | 0 mm | - | - | - |
| 1777659494 | 13.33° C | 87% | 1019.3 hPa | 0 mm | - | - | - |
| 1777659194 | 13.33° C | 87% | 1019.2 hPa | 0 mm | - | - | - |
| 1777658894 | 13.33° C | 87% | 1019 hPa | 0 mm | - | - | - |
| 1777658595 | 13.89° C | 86% | 1019.1 hPa | 0 mm | - | - | - |
| 1777658294 | 13.89° C | 86% | 1019.1 hPa | 0 mm | - | - | - |
| 1777657994 | 14.44° C | 86% | 1019 hPa | 0 mm | - | - | - |
| 1777657695 | 14.44° C | 86% | 1018.8 hPa | 0 mm | - | - | - |
| 1777657394 | 14.44° C | 86% | 1018.8 hPa | 0 mm | - | - | - |
| 1777657094 | 14.44° C | 86% | 1018.9 hPa | 0 mm | - | - | - |
| 1777656794 | 15° C | 88% | 1018.8 hPa | 0 mm | - | - | - |
| 1777656494 | 14.44° C | 87% | 1018.9 hPa | 0 mm | - | - | - |
| 1777656194 | 14.44° C | 87% | 1019 hPa | 0 mm | - | - | - |
| 1777655894 | 14.44° C | 87% | 1019 hPa | 0 mm | - | - | - |
| 1777655600 | 14.44° C | 87% | 1019 hPa | 0 mm | - | - | - |
| 1777655295 | 14.44° C | 87% | 1019 hPa | 0 mm | - | - | - |
| 1777654995 | 14.44° C | 89% | 1019 hPa | 0 mm | - | - | - |
| 1777654695 | 14.44° C | 89% | 1019.1 hPa | 0 mm | - | - | - |
| 1777654395 | 13.89° C | 89% | 1019.1 hPa | 0 mm | - | - | - |
| 1777654095 | 13.89° C | 89% | 1019.1 hPa | 0 mm | - | - | - |
| 1777653795 | 13.89° C | 89% | 1019.2 hPa | 0 mm | - | - | - |
| 1777653495 | 13.33° C | 89% | 1019.2 hPa | 0 mm | - | - | - |
| 1777653195 | 13.33° C | 89% | 1019.2 hPa | 0 mm | - | - | - |
| 1777652895 | 13.89° C | 88% | 1019.3 hPa | 0 mm | - | - | - |
* Rain latest hour (hover to see other rain measurements)
** Current wind speed in m/s (hover to see current wind gust speed)